Wind_Speed
24 24 23 23 23 23 23 23 23 23 24 25 23 19 16 17 17 12 7 8 7 14 13 15 8 4 6 3 3 3 3 1 7 7 4 7 4 3 6 9 1 3 7 14 22
25 25 25 24 24 24 24 24 24 24 24 23 23 18 14 16 16 11 20 14 11 17 14 12 5 6 1 2 1 4 3 8 7 7 7 9 6 6 5 5 5 12 16 23 23
24 25 26 26 26 26 26 25 25 25 24 22 21 15 11 13 5 7 3 11 22 16 8 9 11 5 3 3 4 5 5 5 4 7 17 10 5 2 10 2 5 19 17 18 20
26 26 26 27 27 28 28 27 26 26 24 21 18 12 8 5 4 1 1 7 19 19 12 8 3 4 0 3 3 2 7 5 7 11 11 12 7 5 5 4 11 16 20 18 14
27 28 28 29 30 30 31 28 27 26 23 21 13 7 3 2 10 10 15 7 13 24 16 6 5 4 3 3 4 3 2 5 9 14 14 11 3 4 2 12 15 15 16 15 13
28 29 29 30 30 31 32 30 28 25 23 18 8 2 0 3 4 8 7 4 12 21 11 9 6 6 3 3 2 4 9 8 6 12 9 6 4 1 4 13 15 15 12 13 13
30 30 30 32 33 34 34 31 29 26 20 11 3 2 1 14 5 15 2 2 17 11 7 10 4 3 3 3 3 1 7 9 6 5 4 10 2 3 13 13 14 14 12 11 13
32 32 32 33 34 35 33 31 29 17 7 4 7 3 7 6 9 10 7 4 7 8 6 4 8 5 2 2 6 5 6 5 3 4 6 1 4 4 12 15 13 13 12 12 11
34 33 33 34 35 37 33 31 15 3 2 7 3 2 9 9 7 7 11 5 7 7 5 3 5 4 3 5 4 6 6 4 2 7 6 1 3 9 12 13 12 12 12 13 11
35 35 35 35 36 36 31 17 1 4 4 1 1 2 6 1 2 3 15 8 3 5 2 3 4 4 3 4 5 6 6 2 6 10 7 3 3 12 15 14 15 13 12 13 13
36 37 36 37 36 33 23 3 4 1 2 7 4 4 5 10 6 3 7 9 3 4 5 2 4 7 9 6 5 8 7 5 6 6 6 6 4 13 15 13 13 13 14 14 15
37 38 38 38 36 14 15 4 5 4 9 10 14 9 17 3 5 2 14 6 5 5 4 4 7 7 8 7 6 6 5 5 5 3 6 7 8 13 17 23 18 16 15 15 14
37 38 40 39 25 4 14 6 10 9 3 9 7 7 7 12 9 8 9 5 5 6 5 6 4 11 6 5 7 6 8 5 4 1 4 5 5 6 12 11 11 12 11 13 15
37 38 41 43 3 21 6 2 18 2 3 8 5 7 7 9 5 9 14 6 2 11 7 4 4 7 6 4 6 5 8 6 8 5 4 5 5 7 8 16 12 16 14 16 16
37 38 39 32 18 8 4 19 18 3 4 4 4 1 2 10 7 7 10 5 9 5 7 8 7 7 5 6 8 4 7 6 1 4 5 2 2 5 11 10 20 21 19 18 17
38 40 39 14 13 19 11 24 2 4 7 6 3 5 6 3 3 4 6 6 5 5 3 6 2 6 9 5 9 6 6 8 5 4 1 7 6 4 7 19 21 17 20 20 18
40 43 34 15 6 12 17 5 3 5 3 5 4 4 5 6 4 5 9 9 8 5 5 1 5 2 2 4 3 7 7 3 4 2 6 3 4 10 10 10 22 21 24 22 19
45 41 25 21 18 10 1 4 7 7 10 3 1 2 7 7 7 3 8 10 2 6 4 6 5 9 4 9 7 7 9 6 7 4 4 5 7 10 13 13 11 16 17 16 17
44 27 16 6 5 11 4 5 7 7 6 2 4 1 3 3 5 5 9 13 12 10 9 6 6 3 5 6 11 4 4 7 7 2 3 4 7 9 4 6 8 11 8 14 16
32 14 11 10 5 11 3 5 6 4 4 0 7 4 5 4 8 7 10 7 6 10 4 7 1 5 3 5 1 8 8 4 2 5 5 4 4 5 6 10 7 9 14 15 15
10 4 12 5 11 4 4 7 7 10 2 2 4 2 2 3 6 7 9 3 13 10 8 6 4 5 3 7 9 3 3 6 5 5 6 4 7 9 9 9 9 9 9 10 13
6 4 5 5 2 1 3 5 4 5 2 6 3 4 5 3 2 2 8 7 9 8 11 8 5 5 12 4 1 6 9 8 5 5 2 4 7 5 10 8 6 10 7 6 7
4 3 4 2 2 2 5 4 4 4 5 5 6 6 1 5 2 4 3 5 3 7 9 8 3 3 9 5 3 4 4 5 5 4 7 5 7 3 6 7 8 9 8 7 8
3 4 4 3 1 3 5 5 5 5 7 5 2 2 2 1 2 3 2 3 6 4 1 6 3 10 16 9 5 5 7 6 7 5 6 7 6 7 7 8 7 7 7 8 9
1 3 2 4 3 7 3 4 5 3 4 3 2 9 7 5 3 6 5 8 8 3 4 8 8 7 8 12 9 8 7 10 9 7 9 7 10 11 10 12 12 9 4 7 10
1 0 2 4 4 5 2 2 5 7 3 3 1 5 2 4 6 3 6 5 7 5 5 1 5 8 11 14 10 10 14 10 11 3 5 5 8 10 2 6 5 10 9 9 9
3 4 1 3 5 3 3 4 7 10 6 6 7 6 5 4 2 6 6 7 8 4 3 3 4 4 7 14 5 4 15 12 6 5 7 6 12 6 6 9 10 11 12 14 12
Wind_Direction
7 3 0 359 356 352 350 348 346 344 342 339 336 329 323 320 317 299 242 233 191 169 136 152 178 170 174 250 201 113 50 159 182 151 166 145 151 180 104 136 59 122 125 141 150
5 2 360 358 355 352 348 346 343 341 339 336 335 329 323 324 320 262 267 244 194 174 143 150 166 157 208 231 231 113 152 212 185 152 150 163 177 136 118 136 82 92 104 134 145
2 359 358 354 352 350 348 345 341 338 336 333 332 329 327 333 334 249 61 219 216 206 151 170 151 161 201 188 193 186 210 182 197 138 136 156 150 65 126 199 215 145 141 147 150
358 356 353 351 349 347 345 343 338 333 331 328 327 326 332 350 277 153 337 329 209 195 158 156 148 151 174 247 196 237 249 189 145 141 133 155 137 122 194 210 144 145 148 153 163
355 352 350 347 346 345 342 339 334 329 326 322 317 321 351 4 252 292 305 324 171 179 166 155 156 155 196 240 305 185 286 156 137 138 129 120 133 151 110 121 134 141 153 160 173
354 351 347 345 342 340 338 335 331 325 320 312 299 304 95 264 263 331 315 165 166 162 164 162 195 190 167 236 261 339 78 71 87 128 118 118 172 131 122 136 144 153 171 173 180
351 348 345 342 341 336 333 333 328 321 313 291 235 140 213 239 220 310 306 166 163 154 140 192 169 96 198 290 328 7 77 59 63 103 89 119 267 141 147 153 156 169 180 191 191
351 347 344 341 339 337 330 329 323 320 305 223 152 126 246 267 288 286 204 141 167 176 195 174 187 120 197 293 22 73 58 91 269 122 170 93 236 139 160 160 177 181 187 195 203
350 347 343 339 339 335 331 325 320 33 119 139 119 149 265 296 270 244 189 132 147 173 175 124 140 139 55 100 38 4 148 133 176 195 153 182 222 169 171 177 182 191 197 202 205
349 346 344 340 340 335 333 332 66 102 118 120 316 346 268 273 289 215 204 146 130 118 69 109 67 103 56 90 185 162 131 147 186 207 178 154 288 167 180 188 193 197 202 208 210
349 348 344 340 340 338 342 342 6 354 201 207 210 253 285 299 282 215 167 139 102 95 154 196 112 188 181 190 138 122 127 174 205 196 153 205 180 183 189 204 204 204 204 211 218
347 347 346 340 338 341 354 60 83 305 302 234 246 249 251 309 323 334 151 128 146 186 136 74 210 217 125 151 127 117 130 221 311 173 157 191 224 190 187 213 207 204 211 213 220
345 346 346 340 336 7 342 130 352 352 244 287 208 205 196 153 205 240 152 141 144 160 183 148 259 153 138 147 155 172 170 171 182 89 51 97 314 188 213 210 222 222 221 223 218
343 344 345 341 15 336 323 52 332 240 353 276 260 265 154 146 238 195 169 145 170 187 146 211 202 143 154 182 140 231 175 160 140 128 216 149 259 241 190 210 222 225 215 217 217
341 340 341 344 304 306 303 328 332 147 319 248 225 132 163 170 150 215 164 74 167 182 127 226 176 162 165 195 175 239 136 158 132 102 105 206 47 261 164 216 225 227 218 220 216
337 333 336 330 303 290 315 333 114 53 244 299 215 166 114 280 233 104 138 88 150 145 140 199 253 170 195 168 180 162 80 43 54 90 94 212 166 263 183 215 228 219 223 220 213
333 328 323 289 242 289 307 342 76 189 276 260 233 167 150 183 240 149 155 159 159 145 216 34 216 232 162 89 70 90 71 7 349 6 215 102 129 236 228 232 222 208 215 216 209
331 329 318 286 276 264 278 61 207 198 216 299 120 104 181 158 214 149 136 181 203 112 120 165 271 167 178 173 173 176 151 154 197 193 245 85 213 247 228 234 234 235 226 220 209
331 330 313 317 284 184 109 204 213 203 222 246 351 230 268 208 159 161 177 204 191 169 166 150 257 251 187 151 148 183 145 184 106 24 91 235 284 304 293 275 242 238 197 208 209
330 320 301 314 174 144 103 226 222 237 316 165 200 193 221 217 158 179 166 194 196 182 154 200 250 209 200 110 193 156 160 104 3 157 214 264 267 231 247 253 224 242 215 206 202
333 343 351 124 137 54 200 233 219 262 359 293 223 238 246 202 173 166 198 247 190 188 143 140 123 288 114 197 162 115 166 56 122 132 182 213 254 216 221 237 260 258 227 201 196
359 329 139 357 30 130 202 203 253 256 154 249 278 224 202 275 257 234 193 210 182 148 177 201 166 207 232 253 192 177 186 152 149 226 211 176 257 232 232 252 262 267 227 194 191
342 269 339 283 267 279 291 282 261 280 242 185 225 220 204 204 223 209 228 265 135 145 164 170 218 266 301 348 353 196 174 118 98 83 184 165 266 262 259 281 256 250 225 192 192
353 328 319 26 6 11 350 265 240 262 266 227 250 333 72 283 351 305 307 298 43 132 281 159 156 185 228 217 162 189 179 174 150 147 179 208 235 271 235 233 224 236 213 196 192
52 268 300 334 321 329 289 288 304 243 332 296 199 234 220 232 194 194 249 305 303 218 178 159 214 183 236 224 193 209 186 171 181 188 187 225 198 236 225 210 214 202 188 182 200
190 29 332 290 294 308 283 325 20 336 309 329 117 355 359 211 199 141 203 200 239 314 170 155 245 175 234 231 209 220 229 207 217 158 234 175 241 226 337 111 161 191 179 197 203
237 266 243 321 316 349 272 15 330 337 292 312 24 346 306 233 275 264 245 260 276 285 15 297 144 125 239 229 134 274 229 204 191 187 166 172 227 166 203 207 201 193 193 195 199
Height
805 802 799 796 793 790 787 783 780 777 773 770 766 763 761 759 757 756 754 751 752 756 758 761 764 766 767 766 764 767 796 802 798 797 794 788 795 786 786 794 792 794 799 804 812
807 803 800 797 794 790 786 783 779 776 772 769 766 762 760 758 754 751 745 747 750 752 756 759 764 764 770 768 768 779 800 786 770 773 786 787 789 790 794 796 801 800 802 808 812
807 803 800 796 793 790 786 782 778 774 771 768 764 761 759 757 755 741 738 740 745 749 753 756 758 761 769 767 768 775 785 767 763 763 769 785 790 786 797 805 798 798 804 809 812
806 802 799 796 791 788 784 781 777 773 769 766 763 761 759 759 773 737 738 739 740 747 752 754 758 766 770 772 760 774 762 761 762 761 771 784 785 793 792 792 790 795 799 808 812
805 801 797 794 790 786 782 778 774 770 767 764 761 760 760 761 750 738 736 736 737 744 747 752 758 763 772 767 762 769 756 757 755 761 769 779 790 792 794 790 794 800 803 806 811
805 801 796 792 787 783 779 775 771 766 764 761 759 760 761 767 738 736 735 735 736 743 747 749 753 755 761 763 766 759 758 765 765 768 773 789 793 789 797 794 799 802 806 807 810
804 799 795 790 785 780 775 771 767 763 759 757 757 759 760 746 734 735 736 736 738 741 746 747 748 754 757 762 754 759 776 774 777 776 786 785 799 799 792 797 801 804 807 809 809
803 798 793 788 783 777 771 767 762 758 756 755 757 759 756 733 733 732 735 737 739 742 745 746 748 752 754 751 764 774 782 804 782 780 785 788 811 796 793 797 804 804 805 807 809
802 797 791 786 780 774 768 762 757 756 756 756 758 758 752 732 731 729 732 735 738 741 744 746 748 757 759 776 792 789 810 803 794 780 785 792 806 795 794 798 803 803 804 805 806
801 795 790 784 778 771 764 758 757 757 757 758 759 762 738 732 727 727 729 733 737 740 745 747 760 774 782 788 815 801 802 799 802 786 786 798 801 796 794 797 799 800 801 802 803
800 794 788 782 776 770 763 759 762 761 758 750 746 743 733 728 727 726 727 732 737 743 763 754 774 784 777 773 771 777 788 794 786 778 789 799 799 799 796 797 797 797 798 799 798
798 793 786 780 774 769 767 766 773 779 769 741 737 737 730 730 737 726 727 738 745 761 754 767 779 761 762 769 773 779 791 795 784 775 785 796 796 791 791 786 786 790 793 793 794
797 792 785 777 771 770 769 770 770 770 775 739 727 724 722 726 733 730 726 733 746 759 761 774 761 752 757 770 778 784 795 797 789 778 786 795 806 799 786 786 788 786 785 786 787
796 791 786 776 774 772 769 770 768 767 781 747 729 715 713 716 728 713 717 728 742 759 760 762 750 756 762 768 770 783 768 770 783 801 819 790 835 804 791 790 787 781 780 778 779
795 789 786 784 781 776 771 768 766 766 802 726 719 704 708 716 712 716 710 723 747 749 754 761 756 761 765 762 760 770 759 768 771 797 804 803 818 796 790 799 782 771 770 768 770
791 786 783 781 779 770 768 766 765 786 796 736 713 716 722 716 711 712 715 714 726 742 745 751 737 743 748 747 747 752 767 786 801 810 832 805 812 803 800 771 758 760 759 758 761
787 780 778 776 771 767 768 767 787 796 739 734 723 718 721 726 722 716 726 736 753 770 770 752 749 737 732 752 750 764 790 831 828 837 835 806 812 781 764 754 742 743 742 743 747
780 773 767 764 763 765 767 777 787 752 741 719 716 718 729 719 723 719 730 740 737 746 777 780 780 749 736 749 765 772 782 824 838 846 815 804 816 772 742 733 732 730 731 736 742
776 766 761 758 758 762 769 784 756 750 727 725 720 725 724 715 715 720 732 730 729 735 762 779 773 733 730 733 741 767 784 771 813 818 825 810 784 752 738 736 735 732 733 733 734
779 769 760 758 757 762 771 761 751 735 724 716 736 725 734 723 723 728 735 718 723 722 722 748 765 737 724 725 733 746 754 789 808 820 825 813 791 783 750 739 733 732 725 722 723
780 776 760 757 760 766 769 762 743 727 728 727 727 727 725 722 723 727 726 711 706 720 722 742 752 748 730 741 752 756 766 780 784 801 813 821 802 754 738 726 723 721 718 718 718
787 783 764 763 767 773 765 750 733 727 721 728 724 724 723 718 719 720 721 710 698 710 732 731 750 765 750 727 723 731 746 758 787 796 808 805 788 726 729 722 724 717 715 714 716
794 788 763 763 770 770 756 744 734 727 725 725 727 720 715 724 730 723 716 697 697 708 723 729 756 774 758 744 731 736 740 753 770 780 800 801 786 725 725 723 719 717 714 714 715
795 793 775 769 772 768 767 750 739 723 724 721 721 720 723 728 725 730 722 704 703 704 703 715 748 742 750 746 737 741 738 745 752 785 783 780 756 734 720 721 715 713 710 712 713
797 796 790 787 777 779 775 759 742 732 728 722 722 723 729 736 731 738 729 720 705 703 707 719 740 740 728 717 725 726 727 739 747 747 753 741 754 729 720 714 708 705 709 711 712
797 795 790 790 786 779 766 757 753 748 741 728 727 733 731 737 730 729 728 723 721 708 712 719 729 730 724 714 719 726 720 723 724 732 730 730 738 712 704 707 707 705 709 710 708
791 789 788 785 786 782 771 765 760 757 742 737 738 740 735 727 723 724 724 725 722 715 722 724 725 738 742 713 724 742 718 716 717 718 716 738 716 704 709 707 704 703 703 699 699